Location: Powder Track
(41.8531°N, 72.3584°W)
Time: 07:18:55
(UTC+00:00)

Altair - Pass Details

Date: 03 August 2021
Orbit: 1501 x 1682 km, 47.2° (Epoch: 19 September)

Event Time Altitude Azimuth Distance (km) Brightness Sun altitude
Rises 09:05:14 0° 280° (W) 4,703 9.6 -7.5°
Reaches altitude 10° 09:08:23 10° 284° (WNW) 3,701 9.1 -7.0°
Maximum altitude 09:17:36 64° 5° (N) 1,648 7.9 -5.5°
Drops below altitude 10° 09:26:42 10° 86° (E) 3,654 10.8 -4.0°
Sets 09:29:46 0° 90° (E) 4,641 11.3 -3.5°
